Troy, MI

10:49 AM EDT on March 27, 2017 (GMT -0400)
Troy

Weather History for KVLL - November, 2013

Change the Weather History Date:

Sunday, November 10, 2013

  Actual Average (KDET) Record (KDET)
Temperature  
Mean Temperature 44 °F -  
Max Temperature 50 °F 50 °F 68 °F (1999)
Min Temperature 37 °F 37 °F 23 °F (1973)
Degree Days  
Heating Degree Days 22    
Moisture  
Dew Point 29 °F    
Average Humidity 54    
Maximum Humidity 69    
Minimum Humidity 42    
Precipitation  
Precipitation 0.00 in - - ()
Sea Level Pressure  
Sea Level Pressure 30.12 in    
Wind  
Wind Speed 12 mph (West)    
Max Wind Speed 24 mph    
Max Gust Speed 33 mph    
Visibility 10 miles    
Events Rain    
Averages and records for this station are not official NWS values.
T = Trace of Precipitation, MM = Missing Value Source: NWS Daily Summary

Daily Weather History Graph

Daily Weather History Graph

Search for Another Location

Airport or City:

Trip Planner

Search our weather history database for the weather conditions in past years. The results will help you decide how hot, cold, wet, or windy it might be!

Date:

Astronomy

Nov. 10, 2013 Rise Set
Actual Time 7:17 AM EST 5:14 PM EST
Civil Twilight 6:48 AM EST 5:44 PM EST
Nautical Twilight 6:14 AM EST 6:18 PM EST
Astronomical Twilight 5:41 AM EST 6:51 PM EST
Moon 1:27 PM EST (11/10) No Moon Set
Length of Visible Light 10h 56m
Length of Day
9h 56m
First Quarter, 55% of the Moon is Illuminated
Nov 10
First Quarter
Nov 17
Full
Nov 25
Last Quarter
Dec 2
New
Dec 9
First Quarter

Hourly Weather History & Observations

Time (EST) Temp. Windchill Dew Point Humidity Pressure Visibility Wind Dir Wind Speed Gust Speed Precip Events Conditions
12:15 AM 50.0 °F - 32.9 °F 52% 29.91 in 10.0 mi West 12.7 mph 24.2 mph N/A   Overcast
12:34 AM 49.5 °F - 32.9 °F 53% 29.91 in 10.0 mi West 13.8 mph 25.3 mph N/A   Overcast
12:55 AM 48.9 °F - 32.9 °F 54% 29.92 in 10.0 mi West 15.0 mph 19.6 mph N/A   Overcast
1:14 AM 48.6 °F - 32.9 °F 55% 29.91 in 10.0 mi West 6.9 mph - N/A   Overcast
1:35 AM 48.2 °F - 33.1 °F 56% 29.92 in 10.0 mi West 9.2 mph 17.3 mph N/A   Overcast
1:55 AM 48.2 °F - 33.1 °F 56% 29.92 in 10.0 mi West 5.8 mph 16.1 mph N/A   Overcast
2:14 AM 48.0 °F - 32.7 °F 55% 29.92 in 10.0 mi West 10.4 mph 17.3 mph N/A   Overcast
2:35 AM 47.7 °F - 32.0 °F 55% 29.91 in 10.0 mi West 8.1 mph - N/A   Overcast
2:54 AM 46.9 °F - 34.2 °F 61% 29.93 in 10.0 mi West 13.8 mph 18.4 mph N/A Rain Rain
3:15 AM 44.8 °F 40.4 °F 34.9 °F 68% 29.93 in 10.0 mi West 8.1 mph - N/A   Overcast
3:34 AM 45.0 °F 38.9 °F 33.6 °F 64% 29.93 in 10.0 mi West 12.7 mph 21.9 mph N/A   Overcast
3:54 AM 45.0 °F 38.2 °F 32.0 °F 60% 29.94 in 10.0 mi West 15.0 mph 20.7 mph N/A   Overcast
4:14 AM 44.6 °F 38.4 °F 31.1 °F 59% 29.95 in 10.0 mi West 12.7 mph 21.9 mph N/A   Overcast
4:35 AM 44.8 °F 37.4 °F 27.5 °F 51% 29.95 in 10.0 mi West 17.3 mph 26.5 mph N/A   Overcast
4:55 AM 44.6 °F 37.8 °F 26.6 °F 49% 29.97 in 10.0 mi WNW 15.0 mph 25.3 mph N/A   Overcast
5:14 AM 44.2 °F 37.0 °F 26.6 °F 50% 29.98 in 10.0 mi WNW 16.1 mph 23.0 mph N/A   Overcast
5:35 AM 44.2 °F 37.0 °F 27.0 °F 51% 29.99 in 10.0 mi West 16.1 mph 20.7 mph N/A   Overcast
5:55 AM 43.9 °F 36.8 °F 26.8 °F 51% 30.00 in 10.0 mi West 15.0 mph 23.0 mph N/A   Overcast
6:14 AM 43.7 °F 37.3 °F 27.1 °F 52% 30.00 in 10.0 mi West 12.7 mph 20.7 mph N/A   Overcast
6:35 AM 43.7 °F 37.7 °F 27.3 °F 53% 30.01 in 10.0 mi West 11.5 mph 18.4 mph N/A   Overcast
6:55 AM 43.7 °F 37.3 °F 27.3 °F 53% 30.02 in 10.0 mi West 12.7 mph 17.3 mph N/A   Overcast
7:14 AM 43.7 °F 36.0 °F 27.3 °F 53% 30.03 in 10.0 mi West 17.3 mph 24.2 mph N/A   Overcast
7:35 AM 43.7 °F 37.7 °F 27.5 °F 53% 30.05 in 10.0 mi West 11.5 mph 21.9 mph N/A   Overcast
7:54 AM 43.7 °F 37.3 °F 27.9 °F 54% 30.05 in 10.0 mi West 12.7 mph 24.2 mph N/A   Overcast
8:14 AM 43.7 °F 37.7 °F 27.9 °F 54% 30.06 in 10.0 mi West 11.5 mph 18.4 mph N/A   Overcast
8:35 AM 43.7 °F 36.6 °F 27.3 °F 53% 30.07 in 10.0 mi West 15.0 mph 26.5 mph N/A   Overcast
8:54 AM 43.7 °F 36.9 °F 27.1 °F 52% 30.08 in 10.0 mi West 13.8 mph 21.9 mph N/A   Overcast
9:14 AM 43.9 °F 37.2 °F 27.3 °F 52% 30.08 in 10.0 mi West 13.8 mph 19.6 mph N/A   Overcast
9:35 AM 44.6 °F 37.2 °F 27.5 °F 51% 30.09 in 10.0 mi West 17.3 mph 20.7 mph N/A   Overcast
9:54 AM 45.5 °F 39.2 °F 27.5 °F 49% 30.10 in 10.0 mi WNW 13.8 mph 29.9 mph N/A   Mostly Cloudy
10:14 AM 45.5 °F 38.6 °F 28.2 °F 51% 30.10 in 10.0 mi WNW 16.1 mph 24.2 mph N/A   Overcast
10:34 AM 45.7 °F 37.8 °F 27.9 °F 50% 30.12 in 10.0 mi WNW 20.7 mph 29.9 mph N/A   Overcast
10:54 AM 46.0 °F 38.8 °F 27.9 °F 49% 30.14 in 10.0 mi WNW 18.4 mph 32.2 mph N/A   Overcast
11:14 AM 46.4 °F 39.5 °F 27.9 °F 48% 30.14 in 10.0 mi WNW 17.3 mph 29.9 mph N/A   Overcast
11:34 AM 46.6 °F - 28.2 °F 49% 30.15 in 10.0 mi West 16.1 mph 31.1 mph N/A   Overcast
11:55 AM 47.3 °F - 28.0 °F 47% 30.14 in 10.0 mi West 20.7 mph 26.5 mph N/A   Overcast
12:14 PM 47.3 °F - 27.9 °F 47% 30.15 in 10.0 mi WNW 20.7 mph 28.8 mph N/A   Overcast
12:34 PM 47.3 °F - 28.4 °F 48% 30.15 in 10.0 mi WNW 18.4 mph 27.6 mph N/A   Overcast
12:54 PM 48.4 °F - 28.8 °F 47% 30.15 in 10.0 mi WNW 17.3 mph 26.5 mph N/A   Mostly Cloudy
1:14 PM 48.0 °F - 28.4 °F 47% 30.15 in 10.0 mi WNW 15.0 mph 26.5 mph N/A   Mostly Cloudy
1:34 PM 48.9 °F - 28.6 °F 45% 30.16 in 10.0 mi WNW 13.8 mph 24.2 mph N/A   Mostly Cloudy
1:54 PM 49.6 °F - 27.5 °F 42% 30.16 in 10.0 mi WNW 15.0 mph 25.3 mph N/A   Overcast
2:14 PM 48.6 °F - 27.1 °F 43% 30.18 in 10.0 mi West 15.0 mph 29.9 mph N/A   Overcast
2:34 PM 48.2 °F - 28.0 °F 46% 30.18 in 10.0 mi WNW 13.8 mph 27.6 mph N/A   Overcast
2:54 PM 49.1 °F - 28.9 °F 46% 30.19 in 10.0 mi WNW 21.9 mph 26.5 mph N/A   Overcast
3:14 PM 49.1 °F - 27.5 °F 43% 30.20 in 10.0 mi WNW 24.2 mph 33.4 mph N/A   Mostly Cloudy
3:34 PM 49.1 °F - 28.6 °F 45% 30.20 in 10.0 mi WNW 18.4 mph 25.3 mph N/A   Mostly Cloudy
3:54 PM 49.5 °F - 28.0 °F 44% 30.21 in 10.0 mi West 16.1 mph 21.9 mph N/A   Overcast
4:14 PM 49.1 °F - 27.1 °F 43% 30.22 in 10.0 mi WNW 13.8 mph 20.7 mph N/A   Mostly Cloudy
4:34 PM 47.7 °F - 26.4 °F 44% 30.23 in 10.0 mi WNW 16.1 mph 23.0 mph N/A   Mostly Cloudy
4:55 PM 47.3 °F - 26.6 °F 45% 30.23 in 10.0 mi West 12.7 mph 19.6 mph N/A   Scattered Clouds
5:14 PM 46.4 °F 42.4 °F 26.1 °F 45% 30.24 in 10.0 mi WNW 8.1 mph - N/A   Clear
5:35 PM 45.7 °F 43.4 °F 26.6 °F 47% 30.25 in 10.0 mi West 4.6 mph - N/A   Clear
5:54 PM 45.5 °F 41.8 °F 27.1 °F 49% 30.25 in 10.0 mi West 6.9 mph - N/A   Clear
6:14 PM 45.0 °F 41.8 °F 27.5 °F 50% 30.26 in 10.0 mi West 5.8 mph - N/A   Clear
6:35 PM 44.6 °F 43.1 °F 27.9 °F 52% 30.26 in 10.0 mi West 3.5 mph - N/A   Clear
6:54 PM 43.9 °F 41.3 °F 28.2 °F 54% 30.27 in 10.0 mi West 4.6 mph - N/A   Clear
7:14 PM 43.0 °F 41.3 °F 28.2 °F 56% 30.26 in 10.0 mi West 3.5 mph - N/A   Clear
7:34 PM 42.3 °F - 28.2 °F 58% 30.26 in 10.0 mi Calm Calm - N/A   Clear
7:54 PM 41.5 °F 38.6 °F 28.2 °F 59% 30.27 in 10.0 mi West 4.6 mph - N/A   Clear
8:15 PM 41.2 °F 38.2 °F 28.4 °F 60% 30.27 in 10.0 mi WSW 4.6 mph - N/A   Clear
8:34 PM 41.0 °F 38.0 °F 28.4 °F 61% 30.28 in 10.0 mi West 4.6 mph - N/A   Clear
8:55 PM 40.3 °F 38.2 °F 28.2 °F 62% 30.27 in 10.0 mi WSW 3.5 mph - N/A   Clear
9:14 PM 39.4 °F 37.2 °F 28.4 °F 65% 30.28 in 10.0 mi WSW 3.5 mph - N/A   Clear
9:34 PM 39.2 °F 37.0 °F 28.0 °F 64% 30.27 in 10.0 mi West 3.5 mph - N/A   Clear
9:54 PM 38.5 °F 36.1 °F 27.9 °F 66% 30.28 in 10.0 mi WSW 3.5 mph - N/A   Clear
10:14 PM 38.3 °F 35.9 °F 28.0 °F 67% 30.28 in 10.0 mi WSW 3.5 mph - N/A   Clear
10:35 PM 37.8 °F 35.3 °F 28.0 °F 68% 30.27 in 10.0 mi West 3.5 mph - N/A   Clear
10:54 PM 37.6 °F 35.1 °F 28.0 °F 68% 30.28 in 10.0 mi West 3.5 mph - N/A   Clear
11:14 PM 37.4 °F 34.9 °F 28.0 °F 69% 30.26 in 10.0 mi WSW 3.5 mph - N/A   Clear
11:35 PM 38.3 °F 35.9 °F 28.4 °F 68% 30.26 in 10.0 mi WSW 3.5 mph - N/A   Clear
11:54 PM 38.3 °F - 28.8 °F 69% 30.25 in 10.0 mi Calm Calm - N/A   Clear